Location: Bailleul
(50.3375°N, 2.8513°E)
Time: 10:22:04
(UTC+00:00)

Cosmos 1844 - Pass Details

Date: 16 June 2021
Orbit: 823 x 867 km, 70.9° (Epoch: 03 August)

Event Time Altitude Azimuth Distance (km) Brightness Sun altitude
Rises 21:17:47 0° 330° (NNW) 3,371 9.2 -9.0°
Reaches altitude 10° 21:20:13 10° 331° (NNW) 2,435 7.8 -9.2°
Maximum altitude 21:25:49 87° 60° (ENE) 836 3.7 -9.7°
Enters shadow 21:30:50 13° 151° (SSE) 2,221 5.2 -10.2°
